STARLINK-30267, 57663

Orbit data source: Space-Track

STARLINK-30267, 57663 is a payload satellite owned by SpaceX/Seattle (US) in LEO that was launched on Tue, 22 Aug 2023 UTC via an FALCON 9 launch vehicle from the Air Force Western Test Range (AFWTR). Payload-class satellites include a variety of spacecraft equipped with specific instruments for various scientific and technological missions. These include communications satellites like Starlink; space stations such as the ISS; scientific satellites like the Hubble; Earth observation satellites from companies like Planet Labs, Umbra, and HawkEye 360; GPS; miniature CubeSats for education and research; and military/defense satellites.

Loading next visibility...
Identifier
57663, 2023-124A
Orbit
LEO
Country
Flag of USUS
Related business
Manufacturer
SpaceX/Seattle
Mission
Operational Commercial Communications
Bus & Motor
STARLINK V2M, Unknown motor
Mass
730 kg wet, ~700 kg dry
Launch date (UTC)
2023-08-22 (3 years ago)
Launch vehicle
FALCON 9
Launch site
Air Force Western Test Range (AFWTR)
Object type
Payload
Rocket body
Debris
Shape & HBR
Box + 2 Pan, 17.7 m
Radar Cross Section
33.884 m², Large (>1 m²)

Expand to show TLE details & history
Last TLE update: 2 days ago

TLE from 2 days ago
0 STARLINK-30267
1 57663U 23124A   26170.96623956  .00000397  00000-0  25550-4 0  9991
2 57663  53.1596  91.9606 0001338  97.4377 262.6776 15.30195359159227
Epoch: 2026-06-19T23:11Z
TLE epoch observation values (Epoch: 2026-06-19T23:11:23.097Z)
Latitude
-0.00003°
Longitude
-164.0733°
Altitude
476.246 km
Speed
7.629 km/s
True Right ascension
06h 07m 50s
True Declination
0° 00' 00"
Sunlit
Object was in daylight at epoch
Visualization orbit readout
Latitude
Unknown
Longitude
Unknown
Altitude
Unknown
Speed
Unknown
Apparent Right ascension
Unknown
Apparent Declination
Unknown
Sunlit
N/A
Visualization observer readout
Local Sidereal Time
21:29:45
Azimuth
Unknown
Elevation
Unknown
Doppler factor
Unknown
Orbital elements
Apogee altitude
476.402 km
Perigee altitude
474.568 km
Semi-major axis
6,853.622 km
Eccentricity
0.00013
Inclination
53.1596°
RAAN
91.9606°
Arg. of periapsis
97.4377°
True anomaly
262.66239°
Mean anomaly
262.6776°
Eccentric anomaly
262.67°
Mean motion
3.82528 °/min
Orbital period
94.11 mins
BSTAR
0.00002555
Loading maneuver chart data...
Computing Atmospheric mass density...
Loading historical data...
Loading historical data...
Loading historical data...
Loading historical data...
Loading historical data...
Loading historical data...
Loading historical data...

Documentation

Showing up to 5 results
|